ROMMA est une association bénévole à but non lucratif. Votre soutien est indispensable : ADHERER à ROMMA ou FAIRE un DON

Crêts du Salève - (74, Haute-Savoie)

Salève (1270 m)   Longitude: 6° 10' 28'' E   Latitude: 46° 7' 42'' N Station romma n°73
 

Détail journalier du     <<     >>

Température Precipitation Humidité Vent Dir Rafale Dir. rafale Ensol.
Heure (°C) (mm) (%) (km/h) (km/h) (min)
01:00 20.507114N19NNE0
02:00 20.506710N15N0
03:00 20.70638NNO13NNO0
04:00 20.10681NNO5NNO0
05:00 20.00662NNO8NE0
06:00 19.60705SE8SE0
07:00 19.70625ESE11S10
08:00 19.90624S11S60
09:00 21.80631S6S60
10:00 20.30621S5S60
11:00 20.20636O10O60
12:00 20.70625ONO11ONO60
13:00 22.30514ONO13OSO60
14:00 23.00404O11OSO60
15:00 23.60625O15E60
16:00 24.00595SE16E60
17:00 24.70446ESE15ESE60
18:00 25.70464E13E50
19:00 25.60484N13NNO60
20:00 24.304511N18N30
21:00 22.506018NNE29NNE0
22:00 21.706227N31N0
23:00 21.506625N31N0
minuit 21.705727NNE29N0

Graphique du 08-08-2020

 

Serveur OMMA